Eau Claire, WI

7:56 PM CDT on September 28, 2016 (GMT -0500)
Chippewa Valley Regional

Weather History for KEAU - September, 2013

Change the Weather History Date:

Monday, September 23, 2013

  Actual Average Record
Temperature  
Mean Temperature 60 °F 57 °F  
Max Temperature 72 °F 68 °F 93 °F (1937)
Min Temperature 47 °F 45 °F 27 °F (1974)
Degree Days  
Heating Degree Days 5 9  
Month to date heating degree days 104 119  
Since 1 July heating degree days 142 158  
Cooling Degree Days 0 1  
Month to date cooling degree days 82 44  
Year to date cooling degree days 648 571  
Growing Degree Days 9 (Base 50)    
Moisture  
Dew Point 47 °F    
Average Humidity 67    
Maximum Humidity 93    
Minimum Humidity 41    
Precipitation  
Precipitation 0.00 in 0.12 in 2.83 in (2010)
Month to date precipitation 1.50 2.87  
Year to date precipitation 29.14 24.99  
Snow  
Snow 0.00 in 0.00 in T in (1928)
Month to date snowfall 0.0 0.0  
Since 1 July snowfall 0.0 0.0  
Since 1 September snowfall 0.0 0.0  
Snow Depth 0.00 in    
Sea Level Pressure  
Sea Level Pressure 30.00 in    
Wind  
Wind Speed 9 mph (SE)    
Max Wind Speed 20 mph    
Max Gust Speed 26 mph    
Visibility 10 miles    
Events      
T = Trace of Precipitation, MM = Missing Value Source: NWS Daily Summary

Daily Weather History Graph

Daily Weather History Graph

Search for Another Location

Airport or City:

Trip Planner

Search our weather history database for the weather conditions in past years. The results will help you decide how hot, cold, wet, or windy it might be!

Date:

Astronomy

Sep. 23, 2013 Rise Set
Actual Time 6:54 AM CDT 7:01 PM CDT
Civil Twilight 6:25 AM CDT 7:30 PM CDT
Nautical Twilight 5:51 AM CDT 8:04 PM CDT
Astronomical Twilight 5:15 AM CDT 8:39 PM CDT
Moon 9:21 PM CDT (9/23) 11:25 AM CDT (9/23)
Length of Visible Light 13h 04m
Length of Day
12h 06m
Waning Gibbous, 81% of the Moon is Illuminated
Sep 23
Waning Gibbous
Sep 26
Last Quarter
Oct 4
New
Oct 11
First Quarter
Oct 18
Full

Hourly Weather History & Observations

Time (CDT) Temp. Dew Point Humidity Pressure Visibility Wind Dir Wind Speed Gust Speed Precip Events Conditions
12:56 AM 53.1 °F 43.0 °F 69% 29.99 in 10.0 mi ESE 9.2 mph - N/A   Clear
1:56 AM 51.1 °F 43.0 °F 74% 30.00 in 10.0 mi ESE 6.9 mph - N/A   Clear
2:56 AM 50.0 °F 43.0 °F 77% 30.00 in 10.0 mi Variable 6.9 mph - N/A   Clear
3:56 AM 48.9 °F 44.1 °F 83% 30.01 in 10.0 mi Variable 4.6 mph - N/A   Clear
4:56 AM 48.0 °F 44.1 °F 86% 30.01 in 10.0 mi SE 5.8 mph - N/A   Clear
5:56 AM 48.0 °F 44.1 °F 86% 30.01 in 10.0 mi SE 8.1 mph - N/A   Clear
6:56 AM 46.9 °F 44.1 °F 90% 30.03 in 10.0 mi ESE 5.8 mph - N/A   Clear
7:56 AM 48.9 °F 45.0 °F 86% 30.05 in 10.0 mi SE 5.8 mph - N/A   Clear
8:56 AM 53.1 °F 46.0 °F 77% 30.05 in 10.0 mi SSE 9.2 mph - N/A   Clear
9:56 AM 57.0 °F 46.9 °F 69% 30.05 in 10.0 mi SE 10.4 mph - N/A   Clear
10:56 AM 61.0 °F 48.0 °F 62% 30.04 in 10.0 mi SE 12.7 mph - N/A   Clear
11:56 AM 64.9 °F 48.9 °F 56% 30.03 in 10.0 mi SE 12.7 mph - N/A   Clear
12:56 PM 66.9 °F 48.9 °F 52% 30.01 in 10.0 mi SE 12.7 mph - N/A   Clear
1:56 PM 69.1 °F 48.9 °F 49% 29.99 in 10.0 mi South 12.7 mph 21.9 mph N/A   Clear
2:56 PM 71.1 °F 48.0 °F 44% 29.96 in 10.0 mi SSE 15.0 mph 20.7 mph N/A   Clear
3:56 PM 72.0 °F 48.0 °F 43% 29.96 in 10.0 mi SSE 13.8 mph - N/A   Clear
4:56 PM 71.1 °F 46.0 °F 41% 29.96 in 10.0 mi SSE 15.0 mph 21.9 mph N/A   Clear
5:56 PM 69.1 °F 46.9 °F 45% 29.96 in 10.0 mi SE 11.5 mph 18.4 mph N/A   Clear
6:56 PM 66.0 °F 48.9 °F 54% 29.97 in 10.0 mi SE 9.2 mph - N/A   Clear
7:56 PM 63.0 °F 50.0 °F 63% 29.98 in 10.0 mi SE 8.1 mph - N/A   Clear
8:56 PM 61.0 °F 50.0 °F 67% 29.98 in 10.0 mi ESE 9.2 mph - N/A   Clear
9:56 PM 59.0 °F 50.0 °F 72% 29.99 in 10.0 mi ESE 9.2 mph - N/A   Clear
10:56 PM 57.0 °F 50.0 °F 77% 30.00 in 10.0 mi SE 6.9 mph - N/A   Clear
11:56 PM 55.9 °F 48.9 °F 77% 29.99 in 10.0 mi SE 4.6 mph - N/A   Clear